Starlink 32795

operational
NORAD ID: 63042 Int'l Des: 2025-034 Owner: SPXS Country: US Constellation: starlink
LEOCIRCULAR

Starlink 32795について

説明を読み込み中...

リアルタイム位置

3D地球を読み込み中...

次回通過

高度履歴

Altitude vs Time

uPlot chart will show altitude changes over time

軌道要素

1 63042U 25034P 25354.48815086 .00009866 00000-0 34475-3 0 9993
2 63042 53.1607 265.7985 0001456 91.5326 268.5842 15.30204119 46969
Epoch: Dec 20, 2025 • Age: 13 hours

現在のステータス

高度 482.0 km
速度 7.62 km/s
衛星直下点 -22.45°S, 6.17°W
打ち上げ日 Feb 18, 2025
運用期間 0.8 years
タイプ internet

技術仕様

分類 Payload
質量 730.00 kg
乾燥質量 700.00 kg
総質量 730.00 kg
長さ 0.30 m
直径 4.10 m
スパン 29.00 m
形状 Box + pan
製造者 SPXS
バスタイプ Starlink V2M
フェーズステータス In Orbit
所有者/国 SPXS/US

大規模コンステレーション

Loading constellations...